Weather History for Rome, GA

Change the Weather History Date:

Monday, March 11, 2013

  Actual Average Record
Temperature  
Mean Temperature 54 °F 51 °F  
Max Temperature 63 °F 63 °F 84 °F (2006)
Min Temperature 44 °F 38 °F 23 °F (1998)
Degree Days  
Heating Degree Days 10 14  
Month to date heating degree days 174  
Since 1 July heating degree days 2796  
Cooling Degree Days 0 0  
Month to date cooling degree days 0  
Year to date cooling degree days 0  
Growing Degree Days 4 (Base 50)    
Moisture  
Dew Point 51 °F    
Average Humidity 86    
Maximum Humidity 100    
Minimum Humidity 42    
Precipitation  
Precipitation 0.83 in 0.17 in 0.83 in (2013)
Month to date precipitation 1.92  
Year to date precipitation 11.61  
Snow  
Snow 0.00 in - - ()
Month to date snowfall  
Since 1 July snowfall  
Snow Depth -    
Sea Level Pressure  
Sea Level Pressure 29.87 in    
Wind  
Wind Speed 8 mph (SSW)    
Max Wind Speed 17 mph    
Max Gust Speed 29 mph    
Visibility 7 miles    
Events Rain    
T = Trace of Precipitation, MM = Missing Value Source: NWS Daily Summary

Daily Weather History Graph

Daily Weather History Graph

Search for Another Location

Airport:

Trip Planner

Search our weather history database for the weather conditions in past years. The results will help you decide how hot, cold, wet, or windy it might be!

Date:

Astronomy

Mar. 11, 2013 Rise Set
Actual Time 7:56 AM EDT 7:45 PM EDT
Civil Twilight 7:31 AM EDT 8:10 PM EDT
Nautical Twilight 7:02 AM EDT 8:39 PM EDT
Astronomical Twilight 6:32 AM EDT 9:08 PM EDT
Moon 7:30 AM EDT (3/11) 7:54 PM EDT (3/11)
Length of Visible Light 12h 39m
Length of Day
11h 49m
Waning Crescent, 0% of the Moon is Illuminated
Mar 11
Waning Crescent
Mar 11
New
Mar 19
First Quarter
Mar 27
Full
Apr 3
Last Quarter

Hourly Weather History & Observations

Time (EDT) Temp. Windchill Dew Point Humidity Pressure Visibility Wind Dir Wind Speed Gust Speed Precip Events Conditions
12:53 AM 62.6 °F - 44.6 °F 52% 30.02 in 10.0 mi SSE 9.2 mph - N/A   Clear
1:53 AM 60.1 °F - 43.0 °F 53% 29.98 in 10.0 mi SSE 11.5 mph - N/A   Clear
2:53 AM 60.1 °F - 46.0 °F 60% 29.97 in 10.0 mi SSE 13.8 mph 23.0 mph N/A   Clear
3:53 AM 59.0 °F - 48.9 °F 69% 29.95 in 10.0 mi SSE 11.5 mph - N/A   Overcast
4:53 AM 59.0 °F - 50.0 °F 72% 29.95 in 10.0 mi SSE 10.4 mph - N/A   Overcast
5:53 AM 57.9 °F - 50.0 °F 75% 29.94 in 10.0 mi SSE 11.5 mph - N/A   Overcast
6:19 AM 59.0 °F - 51.8 °F 77% 29.96 in 10.0 mi SSE 9.2 mph - N/A   Overcast
6:53 AM 57.9 °F - 51.1 °F 78% 29.92 in 10.0 mi SSE 9.2 mph - N/A   Mostly Cloudy
7:53 AM 59.0 °F - 51.1 °F 75% 29.92 in 10.0 mi SSE 6.9 mph - N/A   Overcast
8:32 AM 59.0 °F - 51.8 °F 77% 29.91 in 10.0 mi SSE 8.1 mph 19.6 mph N/A   Mostly Cloudy
8:53 AM 59.0 °F - 51.1 °F 75% 29.89 in 10.0 mi SSE 10.4 mph 20.7 mph N/A   Mostly Cloudy
9:53 AM 59.0 °F - 52.0 °F 78% 29.88 in 10.0 mi SE 10.4 mph 20.7 mph N/A   Scattered Clouds
10:53 AM 61.0 °F - 52.0 °F 72% 29.86 in 10.0 mi South 15.0 mph 23.0 mph N/A   Mostly Cloudy
11:53 AM 63.0 °F - 51.1 °F 65% 29.85 in 10.0 mi SSE 17.3 mph 28.8 mph N/A   Overcast
12:53 PM 63.0 °F - 52.0 °F 67% 29.82 in 10.0 mi South 16.1 mph 21.9 mph N/A   Overcast
1:33 PM 59.0 °F - 55.4 °F 88% 29.85 in 1.8 mi West 5.8 mph - 0.05 in Rain Rain
1:53 PM 57.0 °F - 55.9 °F 96% 29.84 in 2.0 mi West 8.1 mph - 0.18 in Rain Light Rain
2:02 PM 57.2 °F - 55.4 °F 94% 29.85 in 4.0 mi West 5.8 mph - 0.01 in Rain Light Rain
2:11 PM 57.2 °F - 55.4 °F 94% 29.85 in 1.8 mi West 6.9 mph - 0.04 in Rain Heavy Rain
2:32 PM 57.2 °F - 55.4 °F 94% 29.86 in 2.5 mi West 6.9 mph - 0.17 in Rain Rain
2:40 PM 55.4 °F - 53.6 °F 94% 29.86 in 2.5 mi Variable 4.6 mph - 0.20 in Rain Rain
2:53 PM 55.9 °F - 53.1 °F 90% 29.84 in 2.5 mi WSW 4.6 mph - 0.25 in Rain Rain
3:10 PM 55.4 °F - 53.6 °F 94% 29.86 in 4.0 mi WSW 4.6 mph - 0.04 in Rain Light Rain
3:53 PM 54.0 °F - 54.0 °F 100% 29.84 in 3.0 mi Calm Calm - 0.14 in Rain Rain
4:02 PM 53.6 °F - 53.6 °F 100% 29.85 in 2.0 mi Calm Calm - 0.05 in Rain Rain
4:16 PM 53.6 °F - 53.6 °F 100% 29.84 in 3.0 mi South 3.5 mph - 0.08 in Rain Rain
4:36 PM 53.6 °F - 53.6 °F 100% 29.84 in 4.0 mi SSE 3.5 mph - 0.14 in Rain Rain
4:53 PM 54.0 °F - 54.0 °F 100% 29.83 in 3.0 mi Calm Calm - 0.20 in Rain Rain
5:00 PM 53.6 °F - 53.6 °F 100% 29.84 in 2.5 mi Calm Calm - 0.02 in Rain Rain
5:21 PM 53.6 °F - 53.6 °F 100% 29.81 in 4.0 mi ESE 4.6 mph - 0.08 in Rain Light Rain
5:53 PM 53.1 °F - 53.1 °F 100% 29.79 in 8.0 mi Variable 5.8 mph - 0.18 in Rain Light Rain
6:14 PM 53.6 °F - 53.6 °F 100% 29.80 in 7.0 mi WNW 4.6 mph - 0.02 in Rain Light Rain
6:49 PM 53.6 °F - 53.6 °F 100% 29.81 in 10.0 mi Calm Calm - 0.04 in Rain Light Rain
6:53 PM 53.6 °F - 53.6 °F 100% 29.81 in 10.0 mi Calm Calm - N/A Rain Light Rain
7:00 PM 53.6 °F - 53.6 °F 100% 29.83 in 10.0 mi West 3.5 mph - 0.00 in Rain Light Rain
7:37 PM 51.8 °F - 50.0 °F 94% 29.84 in 8.0 mi WNW 9.2 mph 17.3 mph 0.00 in   Overcast
7:53 PM 50.0 °F - 48.0 °F 93% 29.83 in 10.0 mi WNW 8.1 mph - 0.00 in   Overcast
8:53 PM 48.9 °F - 46.9 °F 93% 29.85 in 8.0 mi West 9.2 mph - 0.01 in Rain Light Rain
9:11 PM 48.2 °F - 46.4 °F 93% 29.87 in 9.0 mi West 9.2 mph - 0.01 in Rain Light Rain
9:53 PM 46.9 °F - 46.0 °F 97% 29.86 in 9.0 mi West 3.5 mph - 0.01 in Rain Light Rain
10:15 PM 46.4 °F 44.3 °F 44.6 °F 93% 29.88 in 10.0 mi West 4.6 mph - 0.01 in Rain Light Rain
10:53 PM 46.0 °F 43.9 °F 44.1 °F 93% 29.89 in 10.0 mi West 4.6 mph - 0.01 in   Overcast
11:53 PM 44.1 °F 41.5 °F 39.9 °F 85% 29.90 in 10.0 mi WSW 4.6 mph - 0.00 in   Clear